Weather observations for the past three days for
The Dalles Municipal Airport
Imperial (Metric)
Date Time (pdt) Wind (mph) Vis. (mi.) Weather Sky Cond. Temperature (ºF) Relative Humidity Wind Chill (°F) Heat Index (°F) Pressure Precipitation (in)
Air Dwpt 6 hour altimeter (in) sea level (mb) 1 hr 3 hr 6 hr
Max. Min.
19 04:53 NW 9 10.00 Fair CLR 71.1 54 81 70 55% 30.07 1018.1
19 03:53 W 9 10.00 Fair CLR 72 54 53% 30.06 1017.6
19 02:53 W 13 G 21 10.00 Fair CLR 75.9 54 47% 78 30.04 1017.0
19 01:53 NW 16 10.00 Fair CLR 75.9 52 43% 78 30.03 1016.7
19 00:53 NW 14 10.00 Fair CLR 78.1 48 35% 78 30.02 1016.3
18 23:53 W 14 G 24 10.00 Fair CLR 81 45 28% 80 30.02 1016.2
18 22:53 W 9 G 18 10.00 Fair CLR 81 46.9 93 81 30% 80 30 1015.7
18 21:53 NW 17 10.00 Fair CLR 82 44.1 26% 80 29.99 1015.2
18 20:53 NW 16 10.00 Fair CLR 84 39.9 21% 81 29.96 1014.4
18 19:53 W 17 G 28 10.00 Fair CLR 87.1 39.9 19% 84 29.95 1013.9
18 18:53 NW 16 G 33 10.00 Fair CLR 90 39.9 17% 86 29.94 1013.5
18 17:53 NW 14 G 28 10.00 Fair CLR 91 43 19% 87 29.94 1013.5
18 16:53 NW 15 G 32 10.00 Fair CLR 91.9 46.9 95 81 21% 88 29.95 1013.8
18 15:53 NW 16 G 29 10.00 Fair CLR 93 50 23% 90 29.95 1013.8
18 14:53 NW 18 G 33 10.00 Fair CLR 93.9 52 24% 91 29.94 1013.7
18 13:53 NW 15 G 26 10.00 Fair CLR 93 53.1 26% 91 29.95 1013.8
18 12:53 NW 15 G 24 10.00 Fair CLR 91 54 28% 89 29.96 1014.3
18 11:53 NW 17 G 25 10.00 Fair CLR 84.9 55.9 37% 84 29.97 1014.6
18 10:53 NW 15 G 23 10.00 Fair CLR 82 55.9 82.9 69.1 41% 82 29.98 1015.0
18 09:53 NW 15 10.00 Fair CLR 79 55 44% 80 29.99 1015.3
18 08:53 NW 17 10.00 Fair CLR 73.9 55 52% 30 1015.7
18 07:53 NW 13 G 23 10.00 Fair CLR 71.1 55 57% 30.01 1015.9
18 06:53 NW 13 10.00 Fair CLR 70 55 59% 30 1015.6
18 05:53 W 8 10.00 Fair CLR 69.1 55 61% 29.98 1015.1
18 04:53 SW 3 10.00 Fair CLR 69.1 57 80.1 69.1 66% 29.97 1014.5
18 03:53 NW 12 10.00 Fair CLR 71.1 57.9 63% 29.94 1013.7
18 02:53 NW 7 10.00 Fair CLR 73 57.9 59% 29.94 1013.7
18 01:53 NW 10 10.00 Fair CLR 75 57.9 55% 78 29.94 1013.7
18 00:53 NW 13 10.00 Fair CLR 78.1 57 48% 79 29.95 1013.8
17 23:53 NW 12 10.00 Fair CLR 79 55.9 45% 80 29.93 1013.4
17 22:53 NW 15 G 23 10.00 Fair CLR 79 57 90 79 47% 80 29.92 1013.1
17 21:53 NW 20 10.00 Fair CLR 81 57 44% 81 29.91 1012.7
17 20:53 NW 20 G 26 10.00 Fair CLR 82 57.9 44% 82 29.89 1012.1
17 19:53 NW 21 G 33 10.00 Fair and Breezy CLR 84 59 43% 84 29.87 1011.3
17 18:53 NW 18 G 29 10.00 Fair CLR 87.1 59 39% 86 29.86 1010.9
17 17:53 NW 21 G 31 10.00 Fair and Breezy CLR 90 57 33% 89 29.85 1010.6
17 16:53 NW 22 G 32 10.00 Fair and Breezy CLR 90 57.9 90 72 34% 89 29.86 1010.8
17 15:53 NW 17 G 30 10.00 Fair CLR 88 60.1 39% 88 29.87 1011.1
17 14:53 NW 24 G 35 10.00 Fair and Breezy CLR 84 61 46% 84 29.89 1011.8
17 13:53 NW 21 G 32 10.00 Thunderstorm in Vicinity and Breezy CLR 77 59 54% 79 29.9 1012.2
17 12:53 NW 18 G 28 10.00 Fair CLR 77 59 54% 79 29.89 1012.1
17 11:53 NW 17 G 26 10.00 Fair CLR 73.9 59 60% 29.89 1012.0
17 10:53 NW 15 G 25 10.00 Fair CLR 73 59 82 70 62% 29.89 1012.1
17 09:53 NW 16 G 24 10.00 Partly Cloudy FEW055 FEW070 SCT110 72 60.1 66% 29.88 1011.6
17 08:53 NW 15 G 24 10.00 Fair CLR 75.9 57.9 54% 78 29.87 1011.3
17 07:53 NW 5 10.00 Fair CLR 79 57.9 49% 80 29.88 1011.7
17 06:53 NW 6 10.00 Fair CLR 78.1 57.9 50% 79 29.87 1011.1
17 05:53 W 12 10.00 Fair CLR 79 55.9 45% 80 29.87 1011.3
17 04:53 S 5 10.00 Fair CLR 81 57 87.1 81 44% 81 29.89 1011.8
17 03:53 W 22 G 32 10.00 Fair and Breezy CLR 82.9 55.9 40% 82 29.83 1009.9
17 02:53 N 8 10.00 Fair CLR 82.9 57.9 43% 83 29.87 1011.2
17 01:53 SW 5 G 17 10.00 Fair CLR 84 57 40% 83 29.82 1009.6
17 00:53 N 9 10.00 Fair CLR 81 52 37% 80 29.83 1009.8
16 23:53 NW 7 10.00 Fair CLR 84 55.9 38% 83 29.81 1009.1
16 22:53 Calm 10.00 Fair CLR 87.1 55 104 86 34% 85 29.82 1009.4
16 21:53 NW 8 10.00 Fair CLR 89.1 54 30% 87 29.79 1008.5
16 20:53 NW 10 10.00 Fair CLR 90 51.1 26% 87 29.77 1007.8
16 19:53 NW 14 10.00 Fair CLR 93.9 45 18% 90 29.77 1007.8
16 18:53 NW 12 10.00 Fair CLR 99 45 16% 95 29.77 1007.8
16 17:53 NW 8 10.00 Fair CLR 102.9 37 10% 98 29.78 1008.1
16 16:53 NW 10 10.00 Fair CLR 102.9 35.1 104 82.9 9% 97 29.8 1008.8
16 15:53 SE 3 10.00 Fair CLR 100.9 32 9% 95 29.82 1009.4
16 14:53 Vrbl 7 10.00 Fair CLR 100 42.1 14% 96 29.84 1010.3
16 13:53 Vrbl 5 10.00 Fair CLR 97 39 13% 92 29.87 1011.1
16 12:53 Vrbl 6 10.00 Fair CLR 93 46.9 21% 89 29.9 1012.1
16 11:53 Calm 10.00 Fair CLR 88 55 33% 86 29.92 1012.9
16 10:53 NW 6 10.00 Fair CLR 82.9 57 84 60.1 41% 82 29.94 1013.5
16 09:53 Calm 10.00 Fair CLR 79 55.9 45% 80 29.95 1013.9
16 08:53 Calm 10.00 Fair CLR 75 54 48% 78 29.96 1014.2
16 07:53 NW 3 10.00 Fair CLR 70 51.1 51% 29.96 1014.3
16 06:53 SE 8 10.00 Fair CLR 64 41 43% 29.95 1014.2
16 05:53 Calm 10.00 Fair CLR 62.1 41 46% 29.95 1013.9
Date Time (pdt) Wind (mph) Vis. (mi.) Weather Sky Cond. Air Dwpt Max. Min. Relative Humidity Wind Chill (°F) Heat Index (°F) altimeter (in) sea level (mb) 1 hr 3 hr 6 hr
6 hour
Temperature (ºF) Pressure Precipitation (in)